Aérodrome :
LOGIN :

S'inscrire | Disclaimer

   EN    FR    IT 

 










Légende :    VFR   VFR Marginal   IFR   IFR Intensif   IFR Très Intensif
Visi : 
Plafond : 
>= 8 km
>= 3000ft
5 à 8 km
1000 à 3000 ft
1500m à 5 km
500 à 1000 ft
800 à 1500m
200 à 500 ft
< 800m
< 200 ft
Symboles :   Orages  Brouillard  Fortes neiges  Fortes précipitations  Vent > 20 kt
SIGMETs :   Divers  Orages  Givrage  Turbulence  Onde Orograph.  Cendres Volcan.







- Altitude de l'aérodrome : 1325 ft
- Code IATA : EBU
- Voir les cartes d'approche


LFMH - St-Etienne Boutheon

DERNIER METAR :
  • 171000Z AUTO VRB03KT CAVOK 18/09 Q1019 NOSIG

METARs EXPIRÉS :
  • 170930Z AUTO VRB03KT CAVOK 17/09 Q1019 NOSIG
  • 170900Z AUTO VRB01KT CAVOK 17/09 Q1019 NOSIG
  • 170830Z AUTO VRB01KT CAVOK 15/09 Q1019 NOSIG
  • 170800Z AUTO VRB01KT CAVOK 13/09 Q1019 NOSIG
  • 170730Z AUTO 00000KT CAVOK 11/09 Q1019 NOSIG

TAF TAF LFMH
Valide du 17 à 09h jusqu'au 18 à 09h UTC


170800Z 1709/1809 34004KT CAVOK
BECMG 1718/1721 VRB02KT
BECMG 1802/1804 3500 BR
BECMG 1806/1807 CAVOK
ATIS : +33 4 77 36 17 51
Pas de NOTAMs connus pour ce terrain.



MET'MAP, la Météo Aéronautique d'un coup d'oeil ! - Copyright ORBIFLY Décembre 2007 - Disclaimer

ORBIFLY MET'MAP TEAM :

Programmation & Développement : Alexandra Zaïnal
Conception & Développement : Baudouin d'Aumeries
Co-Programmation & Développement : Marc-Olivier Méhu
Soutien technique & logistique : Manuel Goepfert

Contact : metmap@orbifly.com




SOURCES & CREDITS :

   NOAA